This demonstration page uses our WeatherBlox Daily Observations layout. Learn more.

Left ArrowRight Arrow

39.29038, -76.61219

Hourly Observations for September 6, 2020

Temp ( °F °C ) Dew Point ( °F °C ) Humidity (%) Winds ( mph kmh ) Pressure ( in mb ) Visibility ( mi km ) Precip ( " mm )
12:54 am 00:54 Clear 63 17.2 56 13.3 78 78 SW 3 6 30.19 1023 10 16 0.00 0.00
1:54 am 01:54 Clear 62 16.7 57 13.9 84 84 Calm 30.19 1022 10 16 0.00 0.00
2:54 am 02:54 Clear 60 15.6 56 13.3 86 86 W 3 6 30.18 1022 10 16 0.00 0.00
3:54 am 03:54 Clear 61 16.1 56 13.3 84 84 WSW 3 6 30.18 1022 10 16 0.00 0.00
4:54 am 04:54 Clear 59 15 56 13.3 90 90 Calm 30.17 1022 10 16 0.00 0.00
5:54 am 05:54 Mostly Clear 60 15.6 56 13.3 86 86 SW 3 6 30.18 1022 10 16 0.00 0.00
6:54 am 06:54 Mostly Sunny 59 15 56 13.3 90 90 Calm 30.20 1023 10 16 0.00 0.00
7:54 am 07:54 Sunny 64 17.8 59 15 84 84 Calm 30.19 1022 10 16 0.00 0.00
8:54 am 08:54 Sunny 71 21.7 59 15 66 66 Calm 30.17 1022 10 16 0.00 0.00
9:54 am 09:54 Sunny 77 25 57 13.9 50 50 SW 5 7 30.15 1021 10 16 0.00 0.00
10:54 am 10:54 Sunny 80 26.7 58 14.4 47 47 WNW 6 9 30.22 1023 10 16 0.00 0.00
11:54 am 11:54 Sunny 82 27.8 57 13.9 42 42 Calm 30.21 1023 10 16 0.00 0.00
12:54 pm 12:54 Mostly Sunny 84 28.9 58 14.4 41 41 VRB 3 6 30.18 1022 10 16 0.00 0.00
1:54 pm 13:54 Mostly Sunny 83 28.3 57 13.9 41 41 SE 8 13 30.16 1021 10 16 0.00 0.00
2:54 pm 14:54 Mostly Sunny 84 28.9 54 12.2 36 36 W 6 9 30.15 1021 10 16 0.00 0.00
3:54 pm 15:54 Mostly Sunny 85 29.4 53 11.7 33 33 VRB 3 6 30.13 1020 10 16 0.00 0.00
4:54 pm 16:54 Mostly Sunny 82 27.8 61 16.1 49 49 SE 10 17 30.13 1020 10 16 0.00 0.00
5:54 pm 17:54 Mostly Sunny 80 26.7 61 16.1 52 52 SSE 10 17 30.12 1020 10 16 0.00 0.00
6:54 pm 18:54 Mostly Sunny 77 25 57 13.9 50 50 S 6 9 30.12 1020 10 16 0.00 0.00
7:54 pm 19:54 Mostly Clear 74 23.3 58 14.4 57 57 SSE 5 7 30.11 1020 10 16 0.00 0.00
8:54 pm 20:54 Partly Cloudy 72 22.2 58 14.4 61 61 SSW 5 7 30.13 1020 10 16 0.00 0.00
9:54 pm 21:54 Mostly Clear 70 21.1 60 15.6 71 71 SW 5 7 30.13 1020 10 16 0.00 0.00
10:54 pm 22:54 Partly Cloudy 70 21.1 61 16.1 73 73 Calm 30.11 1020 10 16 0.00 0.00
11:54 pm 23:54 Mostly Cloudy 68 20 61 16.1 78 78 SSW 5 7 30.11 1020 10 16 0.00 0.00

Powered by AerisWeather